Stations météo

réclame
Mon MeteoGroup
Ponferrada, Espagne (8053): Température de l'air & dewpoint: 11.01.2020 23:00:00 - 17.01.2020 23:00:00 (CET)Ponferrada, Espagne (8053): Vitesse du vent: 11.01.2020 23:00:00 - 17.01.2020 23:00:00 (CET)Ponferrada, Espagne (8053): Direction du vent: 11.01.2020 23:00:00 - 17.01.2020 23:00:00 (CET)Ponferrada, Espagne (8053): reduced air pressure: 11.01.2020 23:00:00 - 17.01.2020 23:00:00 (CET)Ponferrada, Espagne (8053): visibility: 11.01.2020 23:00:00 - 17.01.2020 23:00:00 (CET)Ponferrada, Espagne (8053): Quantités de précipitations: 11.01.2020 23:00:00 - 17.01.2020 23:00:00 (CET)
Date & Time tt [°C] td [°C] ff [km/h] ff [knt] dd ppp [hPa] vv [km] rr [mm]
17.01.2020 23:00:00 5,8 1,9 0 0 N 1032,6 20 0,0
17.01.2020 22:00:00 6,2 1,5 4 2 ESE 1032,7 20 -
17.01.2020 21:00:00 6,6 1,3 5 3 E 1033,0 20 0,0
17.01.2020 20:00:00 6,4 2,3 5 3 ESE 1033,4 20 0,0
17.01.2020 19:00:00 6,9 2,4 2 1 E 1032,7 20 -
17.01.2020 18:00:00 8,4 1,1 2 1 W 1032,4 10 0,0
17.01.2020 17:00:00 9,0 1,4 8 4 W 1032,1 7 0,0
17.01.2020 16:00:00 9,3 1,9 11 6 W 1031,6 30 -
17.01.2020 15:00:00 9,2 2,3 11 6 W 1031,5 20 0,0
17.01.2020 14:00:00 9,8 2,2 11 6 W 1031,7 20 0,0
17.01.2020 13:00:00 9,8 4,6 9 5 WSW 1032,0 30 -
17.01.2020 12:00:00 7,9 4,7 9 5 W 1032,8 20 0,2
17.01.2020 11:00:00 6,9 4,4 8 4 WNW 1031,9 20 0,0
17.01.2020 10:00:00 6,0 4,0 4 2 WNW 1031,3 20 -
17.01.2020 09:00:00 6,2 4,2 4 2 W 1030,0 20 0,2
17.01.2020 08:00:00 6,0 4,6 4 2 E 1029,2 20 0,2
17.01.2020 07:00:00 6,3 4,6 2 1 SE 1027,9 20 -
17.01.2020 06:00:00 7,8 4,2 8 4 WSW 1026,4 20 0,0
17.01.2020 05:00:00 7,8 4,4 4 2 SW 1025,6 20 0,0
17.01.2020 04:00:00 7,4 4,9 4 2 WSW 1025,7 20 -
17.01.2020 03:00:00 8,6 5,9 8 4 NW 1024,7 9 0,0
17.01.2020 02:00:00 7,9 5,7 2 1 W 1024,1 20 0,0
17.01.2020 01:00:00 7,9 6,2 4 2 E 1023,8 20 -
17.01.2020 00:00:00 8,9 5,1 4 2 WNW 1023,0 16 0,0
16.01.2020 23:00:00 9,6 5,6 5 3 W 1022,3 20 0,4
16.01.2020 22:00:00 11,4 3,9 9 5 W 1021,2 20 -
16.01.2020 21:00:00 12,1 3,6 15 8 WSW 1019,7 20 0,0
16.01.2020 20:00:00 11,4 5,9 4 2 ESE 1019,1 20 0,0
16.01.2020 19:00:00 12,6 4,3 13 7 SSW 1018,3 20 -
16.01.2020 18:00:00 12,9 4,6 9 5 SSW 1017,3 20 0,0
16.01.2020 17:00:00 13,3 4,7 9 5 SSW 1017,2 20 0,0
16.01.2020 16:00:00 13,4 4,5 5 3 SW 1017,6 25 -
16.01.2020 15:00:00 14,0 4,8 11 6 S 1018,1 20 0,0
16.01.2020 14:00:00 14,4 4,9 13 7 SW 1019,1 19 0,0
16.01.2020 13:00:00 14,8 5,0 15 8 SSW 1019,3 20 -
16.01.2020 12:00:00 14,2 6,0 9 5 SW 1020,1 20 0,0
16.01.2020 11:00:00 11,1 7,6 4 2 E 1020,7 20 0,0
16.01.2020 10:00:00 12,0 6,5 4 2 WSW 1020,4 20 -
16.01.2020 09:00:00 11,9 5,7 4 2 NW 1020,3 20 0,0
16.01.2020 08:00:00 8,4 6,9 5 3 S 1021,1 20 0,0
16.01.2020 07:00:00 7,4 6,0 4 2 WNW 1021,3 20 -
16.01.2020 06:00:00 7,2 5,7 2 1 N 1021,4 16 0,0
16.01.2020 05:00:00 7,1 5,4 4 2 ESE 1021,5 20 0,0
16.01.2020 04:00:00 8,1 6,4 5 3 WSW 1021,5 20 -
16.01.2020 03:00:00 7,8 5,6 5 3 SW 1022,3 20 0,0
16.01.2020 02:00:00 7,4 5,2 9 5 ESE 1022,8 20 0,0
16.01.2020 01:00:00 7,1 4,7 5 3 E 1023,7 20 -
16.01.2020 00:00:00 6,7 4,0 4 2 WNW 1023,2 20 0,0
15.01.2020 23:00:00 7,2 4,3 4 2 SE 1023,0 20 0,0
15.01.2020 22:00:00 8,2 3,6 11 6 SSE 1022,5 16 -
15.01.2020 21:00:00 9,0 4,8 5 3 SSE 1023,0 10 0,0
15.01.2020 20:00:00 8,7 5,1 4 2 SE 1022,7 13 0,0
15.01.2020 19:00:00 10,2 6,0 4 2 ESE 1022,3 20 -
15.01.2020 18:00:00 14,0 5,6 4 2 NW 1020,6 20 0,0
15.01.2020 17:00:00 15,3 5,8 4 2 W 1019,7 20 0,0
15.01.2020 16:00:00 15,3 6,8 2 1 E 1019,0 30 -
15.01.2020 15:00:00 13,8 7,1 2 1 NNW 1019,2 20 0,0
15.01.2020 14:00:00 12,0 6,9 4 2 E 1020,0 20 0,0
15.01.2020 13:00:00 12,1 7,2 4 2 N 1020,1 30 -
15.01.2020 12:00:00 10,4 6,7 2 1 E 1020,5 20 0,0
15.01.2020 11:00:00 8,7 6,8 4 2 SE 1020,0 20 0,0
15.01.2020 10:00:00 8,0 6,9 8 4 NNE 1019,0 20 -
15.01.2020 09:00:00 8,9 6,5 11 6 WSW 1018,8 4,0 4,0
15.01.2020 08:00:00 10,0 7,9 4 2 NE 1015,2 7 1,0
15.01.2020 07:00:00 10,8 6,5 5 3 N 1014,1 15 -
15.01.2020 06:00:00 11,3 6,0 5 3 NE 1013,1 20 0,0
15.01.2020 05:00:00 11,4 5,9 4 2 NW 1013,5 20 0,0
15.01.2020 04:00:00 10,7 5,2 5 3 NNW 1013,9 20 -
15.01.2020 03:00:00 9,1 4,5 5 3 E 1014,1 20 0,0
15.01.2020 02:00:00 8,8 4,4 2 1 NE 1014,9 20 0,0
15.01.2020 01:00:00 9,2 4,6 2 1 SSW 1014,9 20 -
15.01.2020 00:00:00 9,8 4,2 5 3 E 1015,4 20 0,0
14.01.2020 23:00:00 9,6 4,4 5 3 N 1015,6 19 0,0
14.01.2020 22:00:00 9,5 4,3 4 2 N 1016,4 16 -
14.01.2020 21:00:00 9,7 4,1 5 3 SSE 1016,3 20 0,0
14.01.2020 20:00:00 10,1 3,8 4 2 NNE 1016,2 20 0,0
14.01.2020 19:00:00 11,0 3,5 8 4 NW 1016,2 20 -
14.01.2020 18:00:00 10,4 4,5 4 2 ENE 1016,4 20 0,0
14.01.2020 17:00:00 11,0 4,2 8 4 NW 1016,0 20 0,0
14.01.2020 16:00:00 11,7 3,9 2 1 S 1015,9 30 -
14.01.2020 15:00:00 12,6 4,3 9 5 SW 1016,3 20 0,0
14.01.2020 14:00:00 12,0 4,0 5 3 S 1017,2 20 0,0
14.01.2020 13:00:00 9,6 3,3 4 2 NW 1019,0 25 -
14.01.2020 12:00:00 9,2 3,2 4 2 NNW 1019,7 18 0,0
14.01.2020 11:00:00 6,5 2,6 8 4 SE 1020,1 20 0,0
14.01.2020 10:00:00 5,5 2,0 8 4 SSE 1020,1 20 -
14.01.2020 09:00:00 5,2 1,5 8 4 ESE 1020,1 20 0,0
14.01.2020 08:00:00 5,2 1,5 8 4 SE 1019,9 20 0,0
14.01.2020 07:00:00 4,8 1,5 9 5 SSE 1019,9 20 -
14.01.2020 06:00:00 4,3 1,3 5 3 SSE 1020,2 19 0,0
14.01.2020 05:00:00 3,5 0,7 4 2 S 1020,7 20 0,0
14.01.2020 04:00:00 3,5 0,7 4 2 SSE 1021,1 20 -
14.01.2020 03:00:00 3,5 0,4 5 3 SE 1021,4 20 0,0
14.01.2020 02:00:00 3,5 0,0 4 2 S 1021,9 20 0,0
14.01.2020 01:00:00 3,9 0,1 5 3 SSW 1022,2 20 -
14.01.2020 00:00:00 3,4 -0,4 2 1 S 1022,8 20 0,0
13.01.2020 23:00:00 4,0 -0,2 4 2 W 1023,0 20 0,0
13.01.2020 22:00:00 3,9 -0,5 9 5 SSE 1022,7 20 -
13.01.2020 21:00:00 3,9 -0,5 2 1 SE 1023,0 20 0,0
13.01.2020 20:00:00 4,2 0,0 4 2 SSW 1023,2 16 0,0
13.01.2020 19:00:00 4,9 1,7 4 2 E 1021,7 9 -
13.01.2020 18:00:00 6,4 2,3 2 1 SW 1021,2 12 0,0
13.01.2020 17:00:00 7,1 2,2 4 2 WSW 1021,0 12 0,0
13.01.2020 16:00:00 6,6 1,9 5 3 NW 1021,7 12 -
13.01.2020 15:00:00 4,0 1,2 4 2 WNW 1023,3 9 0,0
13.01.2020 14:00:00 2,9 0,9 5 3 W 1024,7 9 0,0
13.01.2020 13:00:00 1,0 0,9 2 1 S 1026,7 3,0 -
13.01.2020 12:00:00 -2,0 -2,1 5 3 W 1029,2 2,9 0,0
13.01.2020 11:00:00 -3,2 -3,3 4 2 NW 1029,9 2,0 0,0
13.01.2020 10:00:00 -3,1 -3,2 2 1 N 1029,6 0,8 -
13.01.2020 09:00:00 -3,4 -3,5 2 1 NNE 1029,1 4,7 0,0
13.01.2020 08:00:00 -3,7 -3,8 2 1 W 1029,5 0,2 0,0
13.01.2020 07:00:00 -4,3 -4,6 2 1 WNW 1030,2 0,8 -
13.01.2020 06:00:00 -3,4 -3,5 2 1 NNW 1030,3 0,4 0,0
13.01.2020 05:00:00 -3,6 -3,6 4 2 ESE 1030,8 0,2 0,0
13.01.2020 04:00:00 -3,4 -3,5 4 2 NW 1031,5 0,2 -
13.01.2020 03:00:00 -3,1 -3,1 4 2 ESE 1032,0 0,1 0,0
13.01.2020 02:00:00 -3,2 -3,3 4 2 NW 1032,7 0,2 0,0
13.01.2020 01:00:00 -2,3 -2,3 4 2 ESE 1033,6 0,1 -
13.01.2020 00:00:00 -2,6 -2,6 0 0 N 1033,8 0,2 0,0
12.01.2020 23:00:00 -1,6 -1,6 4 2 ESE 1033,6 0,1 0,0
12.01.2020 22:00:00 -1,7 -1,8 2 1 N 1033,8 0,1 -
12.01.2020 21:00:00 -1,0 -1,1 2 1 ESE 1033,8 0,1 0,0
12.01.2020 20:00:00 -0,9 -1,2 4 2 NW 1033,8 0,2 0,0
12.01.2020 19:00:00 0,1 -0,3 2 1 NNW 1033,5 0,1 -
12.01.2020 18:00:00 2,7 0,9 5 3 WNW 1032,5 5 0,0
12.01.2020 17:00:00 3,2 1,4 4 2 WNW 1032,4 - 0,0
12.01.2020 16:00:00 1,7 1,1 2 1 SE 1033,1 4,0 -
12.01.2020 15:00:00 0,6 0,3 2 1 NNE 1033,8 0,9 0,0
12.01.2020 14:00:00 0,0 0,0 2 1 W 1034,8 1,0 0,0
12.01.2020 13:00:00 -0,8 -0,8 2 1 E 1036,4 0,3 -
12.01.2020 12:00:00 -1,3 -1,3 4 2 SE 1037,4 0,3 0,0
12.01.2020 11:00:00 -2,0 -2,0 4 2 NE 1037,9 0,2 0,0
12.01.2020 10:00:00 -2,3 -2,4 2 1 E 1037,6 0,1 -
12.01.2020 09:00:00 -2,3 -2,4 4 2 SE 1036,9 0,2 0,0
12.01.2020 08:00:00 -2,5 -2,6 2 1 E 1036,8 0,6 0,0
12.01.2020 07:00:00 -2,7 -3,1 4 2 NNW 1036,3 14 -
12.01.2020 06:00:00 -2,4 -2,8 4 2 W 1036,2 0,2 0,0
12.01.2020 05:00:00 -2,2 -2,8 2 1 E 1036,0 13 0,0
12.01.2020 04:00:00 -2,1 -2,8 0 0 N 1036,2 13 -
12.01.2020 03:00:00 -1,7 -2,4 2 1 ENE 1036,0 18 0,0
12.01.2020 02:00:00 -1,1 -1,9 0 0 N 1035,8 17 0,0
12.01.2020 01:00:00 -0,7 -1,7 2 1 SE 1036,0 17 -
12.01.2020 00:00:00 0,5 -0,4 4 2 WNW 1035,6 17 0,0
11.01.2020 23:00:00 0,0 -1,1 2 1 ESE 1035,7 20 0,0

tt = Température de l'air
td = dewpoint
ff = Vitesse du vent
dd = Direction du vent
ppp = reduced air pressure
vv = visibility
rr = Quantités de précipitations

stations d'obs. à proximité